| time (UTC) | temp F | wind direction | speed MPH | gust MPH | rain 1hr in | rain 24hr in | rain mn in | humidity % | barometer mb |
| 20260905121525 | 0 | 0.0 | 0.0 | 0.00 | 0.00 | 0.00 | 1012.4 | ||
| 20260905120023 | 0 | 0.0 | 0.0 | 0.00 | 0.00 | 0.00 | 1012.1 | ||
| 20260905114518 | 0 | 0.0 | 0.0 | 0.00 | 0.00 | 0.00 | 1011.9 | ||
| 20260905113055 | 0 | 0.0 | 0.0 | 0.00 | 0.00 | 0.00 | 1011.7 | ||
| 20260905111550 | 0 | 0.0 | 0.0 | 0.00 | 0.00 | 0.00 | 1012.0 | ||
| 20260905110029 | 0 | 0.0 | 0.0 | 0.00 | 0.00 | 0.00 | 1011.9 | ||
| 20260905104533 | 0 | 0.0 | 0.0 | 0.00 | 0.00 | 0.00 | 1011.7 | ||
| 20260905103003 | 0 | 0.0 | 0.0 | 0.00 | 0.00 | 0.00 | 1011.8 | ||
| 20260905101559 | 0 | 0.0 | 0.0 | 0.00 | 0.00 | 0.00 | 1011.9 | ||
| 20260905100046 | 0 | 0.0 | 0.0 | 0.00 | 0.00 | 0.00 | 1011.8 | ||
| 20260905094538 | 0 | 0.0 | 0.0 | 0.00 | 0.00 | 0.00 | 1011.9 | ||
| 20260905093039 | 70 | 70 | 3.0 | 5.0 | 0.00 | 0.00 | 0.00 | 46 | 1011.5 |
| 20260905091535 | 71 | 70 | 3.0 | 4.0 | 0.00 | 0.00 | 0.00 | 46 | 1011.2 |
| 20260905090033 | 71 | 71 | 3.0 | 5.0 | 0.00 | 0.00 | 0.00 | 47 | 1011.0 |
| 20260905084530 | 71 | 80 | 3.0 | 5.0 | 0.00 | 0.00 | 0.00 | 48 | 1011.4 |
| 20260905083034 | 71 | 74 | 2.0 | 5.0 | 0.00 | 0.00 | 0.00 | 50 | 1011.6 |
| 20260905081528 | 71 | 60 | 3.0 | 5.0 | 0.00 | 0.00 | 0.00 | 53 | 1011.7 |
| 20260905080008 | 72 | 58 | 1.0 | 4.0 | 0.00 | 0.00 | 0.00 | 54 | 1011.6 |
| 20260905074506 | 72 | 66 | 0.0 | 1.0 | 0.00 | 0.00 | 0.00 | 57 | 1011.6 |
| 20260905073046 | 73 | 65 | 0.0 | 4.0 | 0.00 | 0.00 | 0.00 | 57 | 1011.6 |
| 20260905071543 | 73 | 73 | 0.0 | 3.0 | 0.00 | 0.00 | 0.00 | 57 | 1011.5 |
| 20260905070025 | 73 | 53 | 2.0 | 4.0 | 0.00 | 0.00 | 0.00 | 59 | 1011.5 |
| 20260905064524 | 74 | 71 | 4.0 | 6.0 | 0.00 | 0.00 | 0.00 | 60 | 1011.4 |
| 20260905063005 | 74 | 82 | 3.0 | 5.0 | 0.00 | 0.00 | 0.00 | 60 | 1011.4 |
| 20260905061504 | 74 | 85 | 4.0 | 5.0 | 0.00 | 0.00 | 0.00 | 65 | 1011.2 |
| 20260905060049 | 75 | 68 | 4.0 | 7.0 | 0.00 | 0.00 | 0.00 | 68 | 1011.3 |
| 20260905054543 | 75 | 85 | 5.0 | 7.0 | 0.00 | 0.00 | 0.00 | 70 | 1011.2 |
| 20260905053022 | 75 | 60 | 4.0 | 6.0 | 0.00 | 0.00 | 0.00 | 71 | 1011.0 |
| 20260905051528 | 76 | 66 | 5.0 | 7.0 | 0.00 | 0.00 | 0.00 | 75 | 1010.9 |
| 20260905050006 | 76 | 70 | 5.0 | 7.0 | 0.00 | 0.00 | 0.00 | 77 | 1010.9 |
| 20260905044506 | 76 | 73 | 5.0 | 8.0 | 0.00 | 0.00 | 0.00 | 79 | 1010.9 |
| 20260905043002 | 77 | 67 | 5.0 | 8.0 | 0.00 | 0.00 | 0.00 | 77 | 1010.9 |
| 20260905041503 | 77 | 71 | 4.0 | 7.0 | 0.00 | 0.00 | 0.00 | 75 | 1010.9 |
| 20260905040104 | 77 | 55 | 4.0 | 8.0 | 0.00 | 0.00 | 0.00 | 76 | 1011.0 |
| 20260905034600 | 77 | 63 | 0.0 | 3.0 | 0.00 | 0.00 | 0.00 | 76 | 1011.0 |
| 20260905033102 | 78 | 56 | 3.0 | 6.0 | 0.00 | 0.00 | 0.00 | 75 | 1010.8 |
| 20260905031604 | 78 | 70 | 1.0 | 3.0 | 0.00 | 0.00 | 0.00 | 77 | 1010.9 |
| 20260905030035 | 79 | 62 | 0.0 | 2.0 | 0.00 | 0.00 | 0.00 | 78 | 1010.9 |
| 20260905024539 | 79 | 71 | 0.0 | 2.0 | 0.00 | 0.00 | 0.00 | 80 | 1010.6 |
| 20260905023014 | 80 | 66 | 0.0 | 3.0 | 0.00 | 0.00 | 0.00 | 80 | 1010.5 |
| 20260905021508 | 81 | 82 | 0.0 | 4.0 | 0.00 | 0.00 | 0.00 | 83 | 1010.3 |
| 20260905020051 | 81 | 70 | 0.0 | 1.0 | 0.00 | 0.00 | 0.00 | 85 | 1010.3 |
| 20260905014548 | 82 | 70 | 0.0 | 2.0 | 0.00 | 0.00 | 0.00 | 86 | 1010.0 |
| 20260905013026 | 83 | 88 | 0.0 | 1.0 | 0.00 | 0.00 | 0.00 | 86 | 1009.8 |
| 20260905011527 | 85 | 88 | 0.0 | 0.0 | 0.00 | 0.00 | 0.00 | 84 | 1009.6 |
| 20260905010000 | 86 | 88 | 1.0 | 3.0 | 0.00 | 0.00 | 0.00 | 83 | 1009.3 |
| 20260905004557 | 87 | 121 | 0.0 | 0.0 | 0.00 | 0.00 | 0.00 | 80 | 1009.3 |
| 20260905003038 | 89 | 120 | 0.0 | 0.0 | 0.00 | 0.00 | 0.00 | 78 | 1009.3 |
| 20260905001539 | 90 | 65 | 0.0 | 0.0 | 0.00 | 0.00 | 0.00 | 76 | 1009.2 |
| 20260905000031 | 96 | 340 | 0.0 | 0.0 | 0.00 | 0.00 | 0.00 | 68 | 1009.1 |
| 20260904234518 | 97 | 340 | 0.0 | 0.0 | 0.00 | 0.00 | 0.00 | 65 | 1009.1 |
| 20260904233120 | 98 | 339 | 0.0 | 0.0 | 0.00 | 0.00 | 0.00 | 63 | 1009.1 |
| 20260904231557 | 95 | 340 | 0.0 | 1.0 | 0.00 | 0.00 | 0.00 | 67 | 1009.1 |
| 20260904230108 | 95 | 28 | 0.0 | 2.0 | 0.00 | 0.00 | 0.00 | 66 | 1009.0 |
| 20260904224534 | 97 | 49 | 0.0 | 1.0 | 0.00 | 0.00 | 0.00 | 66 | 1008.9 |
| 20260904223035 | 94 | 68 | 0.0 | 3.0 | 0.00 | 0.00 | 0.00 | 69 | 1008.8 |
| 20260904221511 | 94 | 16 | 0.0 | 5.0 | 0.00 | 0.00 | 0.00 | 65 | 1008.8 |
| 20260904220008 | 94 | 102 | 1.0 | 4.0 | 0.00 | 0.00 | 0.00 | 65 | 1008.8 |
| 20260904214550 | 92 | 67 | 1.0 | 5.0 | 0.00 | 0.00 | 0.00 | 67 | 1008.8 |
| 20260904213050 | 94 | 288 | 0.0 | 5.0 | 0.00 | 0.00 | 0.00 | 65 | 1008.8 |
| 20260904211529 | 93 | 115 | 0.0 | 3.0 | 0.00 | 0.00 | 0.00 | 65 | 1008.9 |
| 20260904210031 | 94 | 78 | 2.0 | 5.0 | 0.00 | 0.00 | 0.00 | 62 | 1008.8 |
| 20260904204507 | 93 | 256 | 0.0 | 4.0 | 0.00 | 0.00 | 0.00 | 64 | 1008.8 |
| 20260904203006 | 93 | 68 | 0.0 | 4.0 | 0.00 | 0.00 | 0.00 | 64 | 1008.8 |
| 20260904201553 | 92 | 94 | 3.0 | 5.0 | 0.00 | 0.00 | 0.00 | 69 | 1008.8 |
| 20260904200054 | 93 | 70 | 2.0 | 5.0 | 0.00 | 0.00 | 0.00 | 65 | 1008.8 |
| 20260904194537 | 92 | 103 | 1.0 | 4.0 | 0.00 | 0.00 | 0.00 | 66 | 1008.8 |
| 20260904193023 | 92 | 103 | 0.0 | 4.0 | 0.00 | 0.00 | 0.00 | 69 | 1008.8 |
| 20260904191516 | 92 | 118 | 1.0 | 5.0 | 0.00 | 0.00 | 0.00 | 67 | 1008.8 |
| 20260904190009 | 91 | 146 | 1.0 | 6.0 | 0.00 | 0.00 | 0.00 | 68 | 1008.9 |
| 20260904184504 | 91 | 72 | 0.0 | 6.0 | 0.00 | 0.00 | 0.00 | 68 | 1009.0 |
| 20260904183002 | 91 | 51 | 1.0 | 4.0 | 0.00 | 0.00 | 0.00 | 68 | 1009.0 |
| 20260904181600 | 90 | 148 | 1.0 | 5.0 | 0.00 | 0.00 | 0.00 | 70 | 1009.0 |
| 20260904180108 | 89 | 101 | 4.0 | 6.0 | 0.00 | 0.00 | 0.00 | 68 | 1008.9 |
| 20260904174616 | 89 | 117 | 0.0 | 5.0 | 0.00 | 0.00 | 0.00 | 71 | 1008.9 |
| 20260904173051 | 88 | 112 | 3.0 | 6.0 | 0.00 | 0.00 | 0.00 | 72 | 1009.0 |
| 20260904171534 | 87 | 70 | 3.0 | 5.0 | 0.00 | 0.00 | 0.00 | 72 | 1009.0 |
| 20260904170044 | 87 | 67 | 2.0 | 5.0 | 0.00 | 0.00 | 0.00 | 72 | 1009.0 |
| 20260904164513 | 87 | 53 | 2.0 | 4.0 | 0.00 | 0.00 | 0.00 | 71 | 1008.9 |
| 20260904163010 | 86 | 118 | 1.0 | 3.0 | 0.00 | 0.00 | 0.00 | 74 | 1008.9 |
| 20260904161604 | 85 | 252 | 0.0 | 3.0 | 0.00 | 0.00 | 0.00 | 75 | 1008.8 |
| 20260904160052 | 85 | 231 | 0.0 | 3.0 | 0.00 | 0.00 | 0.00 | 76 | 1008.7 |
| 20260904154534 | 84 | 273 | 2.0 | 4.0 | 0.00 | 0.00 | 0.00 | 76 | 1008.8 |
| 20260904153034 | 83 | 275 | 2.0 | 6.0 | 0.00 | 0.00 | 0.00 | 77 | 1008.8 |
| 20260904151516 | 82 | 267 | 2.0 | 7.0 | 0.00 | 0.00 | 0.00 | 80 | 1008.8 |
| 20260904150017 | 81 | 262 | 2.0 | 7.0 | 0.00 | 0.00 | 0.00 | 81 | 1008.9 |
| 20260904144558 | 81 | 276 | 2.0 | 6.0 | 0.00 | 0.00 | 0.00 | 81 | 1008.9 |
| 20260904143057 | 81 | 253 | 2.0 | 7.0 | 0.00 | 0.00 | 0.00 | 81 | 1008.9 |
| 20260904141539 | 80 | 248 | 4.0 | 8.0 | 0.00 | 0.00 | 0.00 | 82 | 1008.9 |
| 20260904140040 | 80 | 202 | 3.0 | 6.0 | 0.00 | 0.00 | 0.00 | 83 | 1008.7 |
| 20260904134520 | 80 | 196 | 2.0 | 4.0 | 0.00 | 0.00 | 0.00 | 83 | 1008.7 |
| 20260904133020 | 78 | 188 | 2.0 | 4.0 | 0.00 | 0.00 | 0.00 | 84 | 1008.8 |
| 20260904131503 | 0 | 0.0 | 0.0 | 0.00 | 0.04 | 0.00 | 1008.9 | ||
| 20260904124555 | 0 | 0.0 | 0.0 | 0.00 | 0.04 | 0.00 | 1008.8 | ||
| 20260904123050 | 0 | 0.0 | 0.0 | 0.00 | 0.04 | 0.00 | 1008.6 |